Regional Weather Roundup
Issued by NWS

Home | Current Version | Previous Version | Text Only | Print | Product List | Glossary Off
Versions: 1 2 3 4 5 6 7 8 9 10 11 12 13 14 15 16 17 18 19 20 21 22 23 24 25 26 27 28 29 30 31 32 33 34 35 36 37 38 39 40 41 42 43 44 45 46 47 48 49 50

000
ASUS43 KFSD 221610
RWRSD

WEATHER ROUNDUP FOR SOUTH DAKOTA
NATIONAL WEATHER SERVICE SIOUX FALLS SD
1000 AM CST SUN JAN 22 2017

NOTE: "FAIR" INDICATES FEW OR NO CLOUDS BELOW 12,000 FEET WITH NO
SIGNIFICANT WEATHER AND/OR OBSTRUCTIONS TO VISIBILITY.


SDZ001>005-009-010-012>017-221700-
NORTHWEST AND NORTH CENTRAL SOUTH DAKOTA

CITY           SKY/WX    TMP DP  RH WIND       PRES   REMARKS
BUFFALO          N/A     21  17  84 W7        29.74R WCI  12
FAITH            N/A     20  17  88 NW14      29.81R WCI   7
MOBRIDGE       CLOUDY    20  17  88 CALM      29.78R
$$

SDZ012>016-024>037-041>051-057-063-072>074-221700-
SOUTHWEST AND SOUTH CENTRAL SOUTH DAKOTA

CITY           SKY/WX    TMP DP  RH WIND       PRES   REMARKS
RAPID CTY ARPT CLOUDY    37  24  59 NW6       29.83R
PIERRE         MOSUNNY   22  18  85 W8        29.83R WCI  12
CUSTER         CLOUDY    30  14  51 NW8       29.78R WCI  22
ELLSWORTH AFB  CLOUDY    34  21  60 N10       29.82R WCI  26
PHILIP         SUNNY     26  22  84 W8        29.85R WCI  18
PINE RIDGE     PTSUNNY   25  24  96 W9        29.86R WCI  15
SPEARFISH      FAIR      32  21  64 CALM      29.83R
WINNER         FAIR      31  26  82 NW8       29.84R WCI  23
$$

SDZ004>011-016>023-039-040-221700-
NORTHEAST SOUTH DAKOTA

CITY           SKY/WX    TMP DP  RH WIND       PRES   REMARKS
ABERDEEN       CLOUDY    28  24  85 W9        29.80R WCI  19
WATERTOWN      FOG       29  29 100 W9        29.75R VSB 1   WCI  20
BROOKINGS      CLOUDY    31  30  96 NW12      29.75R FOG     WCI  22
SISSETON         N/A     31  30  96 NW10      29.76R WCI  22
$$

SDZ017-020-022-023-036>040-048>070-221700-
SOUTHEAST SOUTH DAKOTA

CITY           SKY/WX    TMP DP  RH WIND       PRES   REMARKS
SIOUX FALLS    CLOUDY    33  31  92 NW9       29.78R FOG     WCI  25
HURON          FOG       23  22  96 NW14      29.83R VSB 1/2 WCI  11
CHAMBERLAIN    SUNNY     28  26  96 W6        29.84R WCI  21
MITCHELL       MOSUNNY   29  26  89 NW12      29.83R WCI  19
YANKTON        CLOUDY    28  27  93 NW8       29.81R WCI  20
$$

ABBREVIATIONS USED IN REMARKS
   TC - TEMPERATURE IN CELSIUS
  WCI - WIND CHILL INDEX
   HX - HEAT INDEX
  VSB - VISIBILITY





USA.gov is the U.S. government's official web portal to all federal, state and local government web resources and services.